Location: Recife
(8.0585°S, 34.8848°W)
Time: 12:55:42
(UTC-03:00)

Vanguard 1 Rocket - Pass Details

Date: 21 April 2026
Orbit: 655 x 4212 km, 34.3° (Epoch: 12 May)

Event Time Altitude Azimuth Distance (km) Brightness Sun altitude
Rises 04:11:08 0° 316° (NW) 6,224 11.3 -18.0°
Reaches altitude 10° 04:16:14 10° 321° (NW) 4,606 10.7 -16.7°
Maximum altitude 04:26:46 47° 30° (NNE) 1,648 9.0 -14.2°
Drops below altitude 10° 04:32:38 10° 104° (ESE) 2,602 10.9 -12.8°
Sets 04:34:44 0° 110° (ESE) 3,339 11.4 -12.2°
